Retour au catalogue

HYPSO-1

ActifSciencePO
NORAD 51053·PAYLOAD·🇳🇴 Norway

Lancé Jan 13, 2022 depuis Cape Canaveral Space Force Station

Loading…

Prochains Passages (prochaines 24 heures)

TLE

FraisSource: Space-Track

Époque: Sep 13, 2026, 21:42 UTC

1 51053U 22002BX  26256.90460767  .00144244  00000-0  55291-3 0  9994
2 51053  97.2720 342.5608 0003749 266.7223  93.3620 15.87039366260900

Suivez HYPSO-1 en temps réel avec AllMySat

Download on the App Store